Location: Maiden
(35.5760°N, 81.2120°W)
Time: 01:18:50
(UTC-04:00)

A-11 Canister half - Pass Details

Date: 12 August 2020
Orbit: 1527 x 1682 km, 47.3° (Epoch: 25 September)

Event Time Altitude Azimuth Distance (km) Brightness Sun altitude
Rises 11:55:09 0° 227° (SW) 4,865 11.6 60.2°
Reaches altitude 10° 11:58:15 10° 227° (SW) 3,896 11.2 60.7°
Maximum altitude 12:08:17 80° 142° (SE) 1,699 11.1 62.3°
Drops below altitude 10° 12:18:28 10° 57° (ENE) 3,944 11.3 63.7°
Sets 12:21:38 0° 56° (ENE) 4,928 11.7 64.1°
